Temperature
10 10 10 10 10 10 10 9 9 9 9 9 9 9 9 9 9 9 9 9 9 9 9 9 9 9 9 9 9 9 9 9 9 9 9 9 9 9 9 9 9 10 10
10 10 10 10 10 9 9 9 9 9 9 9 9 9 9 9 9 9 9 9 9 9 9 9 9 9 9 9 9 9 9 9 9 9 9 9 9 9 9 9 9 9 9
10 10 10 9 9 9 9 9 9 9 9 9 8 8 8 8 8 8 8 8 8 8 8 8 8 8 8 8 8 8 9 8 8 8 8 8 8 8 8 9 9 9 9
10 10 9 9 9 9 9 9 9 8 8 8 8 8 8 8 8 8 8 8 8 8 8 8 8 8 8 8 8 8 8 8 8 8 8 8 8 8 8 8 8 8 8
10 9 9 9 9 9 8 8 8 8 8 8 8 8 8 8 8 8 8 8 8 8 8 8 8 8 8 8 8 8 8 8 8 8 8 8 8 8 8 8 8 8 8
9 9 9 9 9 8 8 8 8 8 8 8 8 8 8 8 8 8 8 8 8 8 8 8 8 8 8 8 8 8 8 8 8 8 8 8 8 8 8 8 8 8 8
9 9 9 9 8 8 8 8 8 8 8 8 8 8 8 8 8 8 8 8 8 7 8 8 8 8 8 8 8 8 8 8 8 8 8 8 8 8 8 8 8 8 8
9 9 9 9 8 8 8 8 8 8 8 8 8 8 8 8 8 8 8 8 7 7 7 7 7 7 7 7 7 7 8 8 8 8 8 8 8 8 8 8 8 8 8
9 9 9 8 8 8 8 8 8 8 8 8 8 8 8 8 8 7 7 7 7 7 7 7 7 7 7 7 7 7 7 8 8 8 8 8 8 8 8 8 8 8 8
9 9 9 8 8 8 8 8 8 8 8 8 8 8 8 8 8 7 7 7 7 7 7 7 7 7 7 7 7 7 8 8 8 8 8 8 8 8 8 8 8 8 8
9 9 9 8 8 8 8 8 8 8 8 8 8 8 8 8 8 8 8 8 8 7 7 7 7 7 7 7 7 8 8 8 8 8 8 8 8 8 8 8 8 8 9
9 9 9 8 8 8 8 8 8 8 8 8 8 8 8 8 8 8 8 8 8 8 8 7 7 7 8 8 8 8 8 8 8 8 8 8 8 8 8 8 8 8 9
9 9 9 9 8 8 8 8 8 8 8 8 8 8 8 8 8 8 8 8 8 8 8 8 8 8 8 8 8 8 8 8 8 8 8 8 8 8 9 9 9 9 9
9 9 9 9 9 9 9 9 9 9 9 9 9 9 8 8 8 8 8 8 8 8 8 8 8 8 8 8 8 8 8 8 8 9 9 9 9 9 9 9 9 9 9
9 9 9 9 9 9 9 9 9 9 9 9 9 9 9 9 9 8 8 8 8 8 8 8 9 9 9 9 9 9 9 9 9 9 9 9 9 9 9 9 9 9 9
9 9 9 9 9 9 9 9 9 9 9 9 9 9 9 9 9 9 9 9 9 9 9 9 9 9 9 9 9 9 9 9 9 9 9 9 9 9 9 9 9 9 9
9 9 9 9 9 10 10 10 10 10 10 10 10 10 9 9 9 9 9 9 9 9 9 9 9 9 9 9 9 9 9 9 9 9 9 9 9 9 9 9 9 9 9
10 10 10 10 10 10 10 10 10 10 10 10 10 10 10 10 10 10 10 10 10 10 10 10 10 10 10 10 10 10 10 10 10 10 10 10 10 10 10 9 9 9 9
10 10 10 10 10 10 10 10 10 10 10 11 11 11 10 10 10 10 10 10 10 10 10 10 10 10 10 10 10 10 10 10 10 10 10 10 10 10 10 10 10 10 9
10 10 10 10 10 10 11 11 11 11 11 11 11 11 11 11 11 11 11 11 11 11 11 11 11 11 11 10 10 10 10 10 10 10 10 10 10 10 10 10 10 10 10
10 10 10 10 10 11 11 11 11 11 11 11 11 11 11 11 11 11 11 11 11 11 11 11 11 11 11 11 11 11 11 11 10 10 10 10 10 10 10 10 10 10 10
10 10 10 10 11 11 11 11 11 11 12 12 12 12 12 12 12 12 12 12 12 11 11 11 11 11 11 11 11 11 11 11 11 11 10 10 10 10 10 10 10 10 10
11 11 11 11 11 11 11 12 12 12 12 12 12 12 12 12 12 12 12 12 12 12 12 11 11 11 11 11 11 11 11 11 11 11 11 11 11 10 10 10 10 10 10
11 11 11 11 11 11 12 12 12 12 12 12 12 12 12 12 12 12 12 12 12 12 12 12 12 11 11 11 11 11 11 11 11 11 11 11 11 10 10 10 10 10 10
11 11 11 11 11 11 12 12 12 12 12 12 12 12 12 12 12 12 12 12 12 12 12 12 12 12 12 11 11 11 11 11 11 11 11 11 11 10 10 10 10 10 10
11 11 11 11 11 12 12 12 12 12 12 12 12 12 12 12 12 12 12 12 12 12 12 12 12 12 11 11 11 11 11 11 11 11 11 10 10 10 10 10 10 10 10
Wind_Speed
3 3 4 3 3 3 3 2 2 2 3 3 3 3 3 3 3 3 3 3 3 3 3 2 2 2 1 1 0 0 1 2 2 1 1 1 1 1 1 3 3 4 4
3 4 3 3 3 3 3 2 2 2 2 3 3 4 3 3 3 3 3 3 3 3 3 3 3 2 2 1 1 0 0 1 2 2 1 1 1 1 0 1 2 3 3
4 4 3 3 2 2 2 2 3 3 3 3 3 4 3 3 4 3 3 3 3 3 3 2 3 2 2 1 1 1 0 0 1 2 1 1 1 0 1 1 1 2 2
4 4 3 1 1 1 1 2 2 3 3 4 3 3 3 3 4 4 3 3 3 3 3 3 2 1 1 0 0 0 0 1 1 1 1 0 0 0 1 1 1 1 1
4 3 2 1 1 1 2 2 3 3 3 3 3 4 3 3 3 4 3 3 3 3 4 4 3 3 2 0 1 1 1 1 1 2 1 0 0 0 1 1 1 0 1
4 3 2 2 1 1 1 2 3 3 3 4 3 3 4 3 4 5 3 2 2 2 3 4 4 4 4 4 1 1 2 3 2 2 1 2 2 2 1 1 1 0 1
3 3 2 2 2 1 2 3 2 2 2 2 2 2 3 4 5 5 4 2 2 2 2 3 3 4 4 3 3 3 2 1 4 4 4 4 3 3 2 2 2 2 3
3 3 3 3 2 2 2 2 1 1 1 1 1 1 2 4 5 4 3 3 3 3 3 2 2 3 3 2 2 2 2 2 1 2 4 4 4 4 4 3 3 1 1
4 4 3 3 3 2 1 1 1 0 1 1 1 1 2 4 5 4 2 2 2 3 3 3 2 3 4 3 2 2 2 3 2 1 3 4 5 5 4 2 2 2 0
5 4 4 3 3 2 2 2 1 1 1 1 2 2 2 3 4 4 2 1 2 3 4 4 3 3 4 3 1 1 1 3 2 3 3 3 3 4 5 5 4 3 2
4 4 3 3 3 3 2 1 1 1 1 2 2 3 3 4 4 4 2 1 0 2 3 3 4 5 4 4 1 1 3 2 1 1 2 2 2 2 2 3 5 4 4
4 3 3 2 2 2 2 2 1 1 1 2 2 4 4 4 4 3 2 1 1 0 2 3 4 6 6 5 3 3 3 1 0 1 1 2 2 2 3 3 4 5 6
3 2 2 2 1 1 2 2 1 1 1 2 2 3 4 3 4 4 3 3 2 1 3 5 7 7 6 5 5 5 3 0 0 0 2 2 3 3 2 2 3 2 3
4 2 2 2 2 2 2 2 2 2 2 2 2 3 3 3 3 3 3 3 4 4 4 6 8 7 4 4 5 4 2 2 2 2 3 3 2 2 2 2 1 1 2
3 2 2 3 3 2 3 3 4 5 5 4 4 4 3 4 5 5 3 2 2 3 4 3 3 4 4 4 3 3 3 2 2 2 2 2 2 2 3 2 1 1 1
3 3 2 2 2 3 3 4 6 6 8 9 8 7 6 7 7 6 6 5 5 4 2 2 3 3 4 4 4 4 3 3 3 3 3 3 3 3 3 2 2 2 3
4 4 3 3 3 3 3 3 5 6 6 7 9 9 9 8 8 7 6 6 6 3 1 3 4 4 5 5 4 4 4 4 3 3 3 3 3 3 3 3 3 3 3
4 5 4 4 4 5 5 5 4 5 5 5 6 9 10 9 9 9 6 4 4 2 3 4 5 5 5 5 4 4 4 4 3 3 3 4 4 3 3 3 3 4 4
4 3 4 4 4 5 5 5 5 5 5 5 4 5 8 7 8 8 4 3 4 5 5 5 5 5 5 5 5 4 4 4 4 4 4 4 4 3 3 4 4 5 4
4 7 6 4 4 5 4 4 5 5 5 5 5 5 3 1 3 4 4 4 5 6 6 6 6 5 5 5 5 4 4 4 4 4 4 4 4 4 4 5 4 4 4
4 5 7 5 5 5 5 5 5 5 5 6 6 7 7 5 6 7 6 6 7 7 7 7 6 6 5 5 4 5 5 4 4 4 5 5 4 4 4 4 5 5 5
4 4 4 5 5 5 5 5 5 5 6 7 6 7 9 6 6 7 7 8 8 7 7 6 6 6 5 5 5 5 5 5 5 5 5 5 5 5 5 5 5 5 5
4 4 4 5 5 6 6 5 5 6 6 6 6 6 5 6 7 7 8 8 7 7 7 6 6 6 7 7 7 5 5 6 7 6 6 5 5 5 5 5 6 5 5
5 5 5 5 5 5 5 6 6 6 6 6 6 6 6 7 7 8 8 7 7 7 7 7 7 9 10 9 8 9 10 10 10 8 8 6 6 6 5 5 6 6 6
5 5 5 5 5 5 6 6 6 6 6 6 6 6 6 7 7 8 7 7 7 7 8 8 7 8 10 10 10 10 10 11 10 9 7 5 6 6 6 6 6 6 7
6 6 6 5 5 5 5 6 6 7 7 7 6 7 7 7 7 7 6 6 6 6 7 7 8 10 11 11 12 12 11 10 10 10 8 4 5 6 6 6 7 7 7
Wind_Direction
93 92 87 78 74 72 68 51 43 34 27 30 23 29 22 13 6 5 349 354 6 356 354 359 344 333 338 334 320 239 203 176 205 271 293 307 322 347 25 49 52 51 59
121 104 92 80 70 60 46 36 41 37 31 39 44 40 31 23 17 22 13 15 14 359 351 1 348 354 11 354 12 5 238 194 177 208 287 310 291 222 132 65 60 66 69
122 108 97 81 72 62 39 33 39 39 34 33 42 39 31 26 24 21 23 21 9 356 350 347 332 356 1 350 14 23 250 146 147 174 242 293 296 128 78 38 53 53 59
123 116 112 111 109 82 46 42 39 45 49 37 35 38 41 35 26 16 20 20 8 358 353 346 332 329 289 266 321 237 154 111 114 140 155 249 251 134 113 114 26 22 7
131 132 149 152 112 83 60 47 44 41 50 44 42 36 31 29 14 14 14 22 13 359 353 352 355 7 13 359 179 175 146 139 137 149 159 146 227 171 198 201 166 350 324
136 153 152 129 98 80 72 65 55 40 36 37 37 34 25 15 5 19 24 12 1 358 348 346 352 4 10 16 15 189 175 172 178 176 182 184 227 217 200 180 156 106 300
139 141 137 134 114 100 96 75 54 33 37 30 15 28 8 340 354 2 12 21 7 348 339 342 351 358 5 6 12 25 27 187 189 179 183 203 207 208 189 197 201 202 225
141 145 142 134 125 112 94 82 35 17 15 353 333 343 342 334 350 0 19 30 12 356 353 346 343 339 344 358 25 25 7 348 278 192 198 216 217 215 204 205 204 196 305
149 155 156 148 143 147 152 211 238 296 318 301 284 312 327 320 340 353 18 28 12 353 349 343 341 345 340 4 48 32 3 335 340 297 233 238 245 241 214 160 158 131 300
172 171 163 159 162 183 207 229 252 260 273 287 300 297 297 307 325 347 9 44 2 336 336 337 341 344 346 2 61 80 326 304 322 340 335 317 295 268 230 195 183 172 191
172 159 159 171 185 198 214 240 260 286 329 325 310 306 304 301 317 333 357 89 267 319 328 325 321 336 341 344 338 207 242 267 298 320 330 331 334 313 267 222 196 183 186
155 156 172 195 203 192 211 265 272 256 312 308 306 311 311 311 311 322 339 343 174 258 301 302 307 324 330 328 315 276 283 302 11 20 355 322 309 289 281 271 245 223 217
148 166 190 210 221 206 209 244 277 274 268 283 284 287 297 308 314 329 345 347 354 311 285 290 305 318 325 323 310 306 316 328 10 287 272 267 259 258 275 298 299 286 275
165 189 199 199 235 258 246 229 233 248 251 258 251 257 277 292 298 315 324 323 331 331 319 316 320 323 324 301 302 308 294 238 210 228 249 265 282 291 280 264 268 306 324
174 190 201 214 225 249 267 256 240 239 225 222 232 225 224 255 258 249 250 280 296 302 319 335 343 337 334 323 311 297 289 281 245 241 245 264 275 278 277 264 233 218 238
177 195 205 223 238 244 263 293 285 259 260 245 233 226 237 243 251 258 264 275 290 305 340 319 312 308 299 291 291 292 282 263 252 239 241 245 253 256 267 269 237 223 246
190 208 218 227 236 244 247 253 281 299 292 269 251 242 240 249 256 263 274 290 295 281 271 279 278 282 282 280 270 260 260 260 251 239 240 247 247 246 248 258 256 251 257
201 212 217 229 235 241 243 245 245 252 276 288 276 255 249 250 256 264 277 307 303 279 248 264 268 272 273 270 269 266 259 255 243 240 243 245 238 237 245 253 252 249 256
208 227 236 240 243 244 244 248 252 248 251 262 277 279 258 254 262 266 247 229 258 272 266 263 262 263 265 266 263 253 243 239 235 232 238 241 239 233 245 252 253 257 253
222 238 244 251 259 260 257 253 255 253 253 256 258 259 250 221 258 265 240 236 248 261 266 265 264 262 261 260 256 246 240 238 237 236 241 245 241 232 241 249 250 253 256
227 244 253 261 257 255 254 252 250 248 248 251 253 248 219 219 240 249 249 245 246 254 257 258 261 264 260 254 250 247 242 241 238 236 240 244 241 243 247 249 255 255 256
222 237 244 248 256 259 257 254 254 251 249 251 257 259 237 232 243 248 248 252 250 246 244 243 251 254 251 248 242 239 244 245 245 238 237 240 241 247 251 254 258 255 253
223 237 249 255 257 264 268 264 257 254 254 254 254 253 245 238 245 249 251 252 252 250 251 244 247 257 258 254 248 235 237 244 241 230 226 235 240 243 244 246 249 255 255
228 237 246 259 262 263 265 266 265 262 257 256 256 247 244 242 243 247 250 251 246 249 251 246 243 247 251 255 256 250 245 244 242 235 223 224 232 236 239 244 247 248 248
231 241 249 256 260 261 264 268 270 269 267 263 259 254 250 247 247 250 251 250 250 250 250 247 247 247 247 250 252 254 253 249 248 245 237 229 233 234 238 244 248 250 247
235 243 250 256 259 260 260 263 268 269 268 268 265 260 257 256 256 254 251 250 248 247 251 251 247 245 247 252 256 256 253 251 251 249 240 235 240 247 247 251 256 253 252
Height
1548 1548 1548 1547 1547 1546 1545 1544 1543 1542 1541 1540 1539 1538 1537 1536 1534 1533 1531 1530 1529 1528 1526 1525 1524 1523 1522 1521 1521 1520 1520 1520 1519 1519 1520 1520 1520 1520 1520 1519 1519 1519 1518
1548 1548 1548 1547 1547 1546 1545 1544 1543 1542 1541 1539 1538 1537 1536 1535 1534 1532 1531 1530 1528 1527 1526 1524 1523 1522 1521 1520 1519 1518 1518 1518 1518 1517 1518 1519 1519 1519 1519 1519 1518 1518 1518
1548 1548 1548 1547 1547 1546 1545 1544 1543 1541 1540 1539 1538 1537 1535 1534 1533 1532 1531 1529 1528 1527 1525 1524 1522 1521 1520 1519 1518 1517 1516 1516 1516 1516 1516 1517 1518 1518 1518 1518 1518 1518 1517
1547 1548 1547 1547 1547 1546 1545 1544 1543 1541 1540 1539 1538 1537 1535 1534 1533 1532 1530 1529 1528 1526 1525 1523 1521 1520 1518 1517 1516 1516 1515 1515 1515 1515 1515 1516 1516 1517 1517 1517 1518 1518 1517
1547 1548 1547 1547 1547 1546 1545 1544 1543 1541 1540 1539 1538 1537 1535 1534 1533 1531 1530 1529 1527 1526 1524 1522 1521 1519 1517 1516 1515 1515 1514 1514 1513 1514 1514 1515 1516 1516 1517 1517 1517 1517 1517
1547 1547 1547 1547 1547 1546 1545 1544 1542 1541 1540 1539 1538 1537 1535 1534 1533 1531 1530 1528 1527 1525 1523 1522 1520 1518 1517 1516 1515 1514 1513 1513 1513 1513 1513 1514 1515 1516 1516 1517 1517 1517 1517
1547 1547 1547 1547 1546 1546 1545 1543 1542 1541 1540 1539 1538 1537 1536 1534 1533 1531 1529 1528 1526 1525 1523 1521 1519 1517 1516 1515 1514 1513 1513 1513 1513 1513 1513 1513 1514 1515 1516 1516 1516 1517 1517
1546 1547 1547 1546 1546 1545 1544 1543 1542 1541 1540 1539 1538 1537 1536 1534 1533 1531 1530 1528 1526 1524 1522 1520 1518 1517 1515 1515 1514 1513 1512 1512 1512 1513 1513 1514 1514 1515 1515 1516 1516 1516 1516
1546 1546 1546 1546 1545 1545 1544 1543 1542 1541 1540 1539 1538 1537 1536 1534 1533 1531 1529 1528 1526 1524 1522 1520 1518 1516 1515 1514 1514 1513 1512 1512 1513 1513 1513 1513 1514 1514 1514 1515 1515 1516 1515
1545 1546 1546 1546 1545 1545 1544 1544 1543 1542 1540 1539 1538 1537 1536 1534 1533 1531 1530 1528 1526 1524 1522 1520 1518 1517 1515 1515 1514 1513 1513 1513 1513 1513 1513 1513 1514 1514 1514 1514 1515 1515 1515
1545 1545 1546 1546 1545 1545 1544 1544 1543 1542 1541 1540 1538 1537 1536 1535 1533 1531 1530 1528 1526 1525 1523 1521 1519 1517 1516 1515 1515 1514 1514 1514 1514 1514 1514 1514 1514 1514 1514 1514 1514 1514 1514
1545 1545 1545 1545 1545 1545 1544 1543 1543 1542 1541 1540 1538 1537 1536 1535 1533 1532 1530 1529 1527 1525 1524 1522 1520 1519 1517 1516 1516 1515 1515 1515 1515 1514 1514 1514 1514 1514 1514 1514 1514 1514 1514
1544 1545 1545 1545 1545 1545 1544 1543 1542 1541 1540 1539 1538 1537 1536 1535 1533 1532 1530 1529 1528 1526 1524 1523 1521 1520 1518 1517 1516 1516 1515 1515 1515 1515 1515 1515 1515 1514 1514 1514 1513 1513 1513
1544 1544 1545 1545 1544 1544 1544 1543 1542 1541 1540 1539 1538 1536 1535 1534 1533 1532 1531 1529 1528 1526 1525 1523 1522 1521 1519 1518 1517 1517 1516 1516 1516 1515 1515 1515 1515 1514 1514 1513 1513 1512 1512
1544 1544 1544 1544 1544 1544 1543 1543 1542 1541 1540 1539 1537 1536 1535 1534 1533 1532 1530 1529 1528 1526 1525 1523 1522 1521 1519 1518 1518 1517 1516 1516 1515 1515 1515 1514 1514 1513 1513 1513 1512 1511 1511
1543 1544 1544 1544 1544 1543 1543 1542 1541 1540 1539 1538 1537 1535 1534 1533 1532 1531 1530 1528 1527 1526 1524 1523 1522 1520 1519 1518 1517 1517 1516 1515 1515 1515 1514 1514 1513 1512 1512 1511 1511 1510 1509
1542 1543 1543 1543 1543 1543 1542 1541 1540 1539 1538 1537 1535 1534 1533 1532 1531 1530 1528 1527 1526 1525 1524 1522 1521 1520 1519 1518 1517 1516 1515 1514 1514 1513 1513 1512 1512 1511 1510 1509 1509 1508 1506
1541 1542 1542 1542 1542 1541 1541 1540 1539 1537 1536 1535 1534 1533 1532 1531 1530 1528 1527 1526 1525 1524 1522 1521 1520 1519 1518 1517 1515 1514 1513 1513 1512 1511 1511 1510 1510 1509 1508 1507 1506 1505 1504
1540 1541 1541 1541 1540 1540 1539 1538 1537 1536 1535 1534 1533 1532 1531 1529 1528 1527 1526 1525 1524 1522 1521 1520 1519 1518 1516 1515 1514 1513 1512 1511 1510 1509 1509 1508 1507 1506 1505 1504 1503 1502 1501
1539 1539 1539 1539 1538 1538 1537 1536 1535 1534 1533 1532 1531 1530 1529 1528 1527 1526 1525 1523 1522 1521 1520 1518 1517 1516 1515 1513 1512 1511 1509 1508 1508 1507 1506 1505 1504 1503 1502 1501 1500 1499 1498
1537 1537 1537 1537 1536 1536 1535 1534 1533 1532 1531 1530 1529 1529 1528 1526 1525 1524 1523 1522 1520 1519 1518 1517 1515 1514 1512 1511 1510 1508 1507 1506 1505 1504 1503 1502 1502 1500 1499 1498 1497 1495 1494
1535 1535 1535 1535 1534 1534 1533 1532 1531 1530 1529 1528 1527 1526 1525 1524 1523 1522 1520 1519 1518 1517 1516 1514 1513 1511 1510 1509 1507 1506 1504 1503 1502 1501 1500 1499 1498 1497 1495 1494 1493 1491 1490
1532 1532 1532 1532 1532 1531 1530 1530 1529 1528 1526 1525 1524 1523 1522 1521 1520 1519 1517 1516 1515 1514 1513 1511 1510 1508 1507 1506 1504 1503 1501 1500 1498 1497 1496 1495 1494 1492 1491 1489 1488 1487 1485
1530 1530 1530 1529 1529 1528 1528 1527 1526 1525 1524 1523 1521 1520 1519 1518 1516 1515 1514 1513 1512 1510 1509 1507 1506 1505 1503 1502 1500 1499 1497 1496 1495 1493 1492 1490 1489 1487 1486 1485 1483 1482 1480
1527 1527 1527 1526 1526 1525 1524 1524 1523 1522 1521 1520 1518 1517 1516 1514 1513 1512 1510 1509 1507 1506 1504 1503 1502 1500 1499 1497 1496 1495 1493 1491 1490 1488 1487 1485 1484 1482 1481 1479 1478 1476 1474
1523 1523 1523 1523 1522 1522 1521 1520 1519 1518 1517 1516 1515 1514 1512 1511 1509 1507 1506 1504 1503 1501 1500 1498 1497 1496 1494 1493 1491 1489 1488 1486 1484 1483 1481 1480 1478 1476 1475 1473 1472 1470 1468